Location: Dannhausen
(51.8650°N, 10.1026°E)
Time: 16:39:35
(UTC+00:00)

Meteor 1-20 Rocket - Pass Details

Date: 09 April 2020
Orbit: 818 x 893 km, 81.2° (Epoch: 04 June)

Event Time Altitude Azimuth Distance (km) Brightness Sun altitude
Rises 23:08:43 0° 347° (NNW) 3,501 8.6 -30.0°
Reaches altitude 10° 23:11:12 10° 349° (N) 2,550 7.6 -30.1°
Enters shadow 23:16:32 72° 26° (NNE) 917 4.4 -30.1°
